| time (UTC) | temp F | wind direction | speed MPH | gust MPH | rain 1hr in | rain 24hr in | rain mn in | humidity % | barometer mb |
| 20260906025017 | 66 | 45 | 8.0 | 11.0 | 0.00 | 0.00 | 0.00 | 76 | 1010.5 |
| 20260906024516 | 66 | 45 | 9.0 | 13.0 | 0.00 | 0.00 | 0.00 | 75 | 1010.5 |
| 20260906024016 | 66 | 45 | 8.0 | 11.0 | 0.00 | 0.00 | 0.00 | 76 | 1010.5 |
| 20260906023517 | 66 | 45 | 9.0 | 11.0 | 0.00 | 0.00 | 0.00 | 76 | 1010.4 |
| 20260906023017 | 66 | 45 | 8.0 | 11.0 | 0.00 | 0.00 | 0.00 | 76 | 1010.4 |
| 20260906022537 | 66 | 45 | 9.0 | 11.0 | 0.00 | 0.00 | 0.00 | 75 | 1010.4 |
| 20260906022016 | 66 | 68 | 8.0 | 12.0 | 0.00 | 0.00 | 0.00 | 75 | 1010.4 |
| 20260906021516 | 66 | 68 | 9.0 | 12.0 | 0.00 | 0.00 | 0.00 | 75 | 1010.5 |
| 20260906021016 | 66 | 45 | 10.0 | 14.0 | 0.00 | 0.00 | 0.00 | 75 | 1010.5 |
| 20260906020516 | 66 | 45 | 10.0 | 12.0 | 0.00 | 0.00 | 0.00 | 76 | 1010.5 |
| 20260906020016 | 66 | 45 | 9.0 | 12.0 | 0.00 | 0.00 | 0.00 | 76 | 1010.5 |
| 20260906015536 | 66 | 45 | 7.0 | 12.0 | 0.00 | 0.00 | 0.00 | 77 | 1010.5 |
| 20260906015016 | 66 | 45 | 9.0 | 12.0 | 0.00 | 0.00 | 0.00 | 76 | 1010.5 |
| 20260906014516 | 66 | 45 | 8.0 | 11.0 | 0.00 | 0.00 | 0.00 | 76 | 1010.6 |
| 20260906014017 | 66 | 45 | 9.0 | 12.0 | 0.00 | 0.00 | 0.00 | 76 | 1010.5 |
| 20260906013516 | 66 | 45 | 7.0 | 10.0 | 0.00 | 0.00 | 0.00 | 76 | 1010.5 |
| 20260906013016 | 66 | 45 | 7.0 | 11.0 | 0.00 | 0.00 | 0.00 | 76 | 1010.6 |
| 20260906012516 | 66 | 45 | 8.0 | 10.0 | 0.00 | 0.00 | 0.00 | 76 | 1010.6 |
| 20260906012017 | 66 | 45 | 7.0 | 10.0 | 0.00 | 0.00 | 0.00 | 75 | 1010.5 |
| 20260906011516 | 66 | 68 | 7.0 | 10.0 | 0.00 | 0.00 | 0.00 | 75 | 1010.4 |
| 20260906011016 | 66 | 68 | 8.0 | 12.0 | 0.00 | 0.00 | 0.00 | 75 | 1010.4 |
| 20260906010536 | 66 | 45 | 8.0 | 12.0 | 0.00 | 0.00 | 0.00 | 76 | 1010.4 |
| 20260906010016 | 66 | 45 | 8.0 | 12.0 | 0.00 | 0.00 | 0.00 | 76 | 1010.4 |
| 20260906005516 | 66 | 45 | 8.0 | 10.0 | 0.00 | 0.00 | 0.00 | 75 | 1010.4 |
| 20260906005016 | 66 | 45 | 7.0 | 10.0 | 0.00 | 0.00 | 0.00 | 75 | 1010.3 |
| 20260906004516 | 66 | 45 | 7.0 | 11.0 | 0.00 | 0.00 | 0.00 | 76 | 1010.3 |
| 20260906004017 | 66 | 45 | 7.0 | 11.0 | 0.00 | 0.00 | 0.00 | 75 | 1010.3 |
| 20260906003516 | 66 | 45 | 8.0 | 12.0 | 0.00 | 0.00 | 0.00 | 76 | 1010.4 |
| 20260906003016 | 66 | 45 | 8.0 | 12.0 | 0.00 | 0.00 | 0.00 | 76 | 1010.2 |
| 20260906002516 | 66 | 45 | 9.0 | 12.0 | 0.00 | 0.00 | 0.00 | 76 | 1010.2 |
| 20260906002016 | 66 | 45 | 9.0 | 12.0 | 0.00 | 0.00 | 0.00 | 76 | 1010.1 |
| 20260906001536 | 66 | 45 | 10.0 | 13.0 | 0.00 | 0.00 | 0.00 | 76 | 1010.1 |
| 20260906001016 | 66 | 45 | 9.0 | 12.0 | 0.00 | 0.00 | 0.00 | 76 | 1010.1 |
| 20260906000536 | 66 | 45 | 8.0 | 10.0 | 0.00 | 0.00 | 0.00 | 76 | 1010.1 |
| 20260906000016 | 66 | 45 | 6.0 | 10.0 | 0.00 | 0.00 | 0.00 | 76 | 1010.0 |
| 20260905235516 | 65 | 45 | 6.0 | 9.0 | 0.00 | 0.00 | 0.00 | 76 | 1010.0 |
| 20260905235016 | 66 | 45 | 5.0 | 7.0 | 0.00 | 0.00 | 0.00 | 76 | 1009.9 |
| 20260905234516 | 66 | 45 | 5.0 | 6.0 | 0.00 | 0.00 | 0.00 | 76 | 1009.9 |
| 20260905234039 | 66 | 45 | 6.0 | 9.0 | 0.00 | 0.00 | 0.00 | 76 | 1009.9 |
| 20260905233516 | 66 | 45 | 6.0 | 10.0 | 0.00 | 0.00 | 0.00 | 76 | 1009.9 |
| 20260905233016 | 66 | 45 | 7.0 | 10.0 | 0.00 | 0.00 | 0.00 | 76 | 1009.8 |
| 20260905232516 | 66 | 45 | 8.0 | 10.0 | 0.00 | 0.00 | 0.00 | 76 | 1009.8 |
| 20260905232016 | 66 | 45 | 7.0 | 11.0 | 0.00 | 0.00 | 0.00 | 77 | 1009.7 |
| 20260905231516 | 66 | 45 | 7.0 | 10.0 | 0.00 | 0.00 | 0.00 | 76 | 1009.7 |
| 20260905231017 | 66 | 68 | 6.0 | 9.0 | 0.00 | 0.00 | 0.00 | 77 | 1009.7 |
| 20260905230536 | 66 | 68 | 9.0 | 11.0 | 0.00 | 0.00 | 0.00 | 76 | 1009.6 |
| 20260905230016 | 66 | 68 | 8.0 | 11.0 | 0.00 | 0.00 | 0.00 | 77 | 1009.6 |
| 20260905225516 | 66 | 68 | 8.0 | 11.0 | 0.00 | 0.00 | 0.00 | 76 | 1009.6 |
| 20260905225017 | 66 | 68 | 9.0 | 11.0 | 0.00 | 0.00 | 0.00 | 76 | 1009.7 |
| 20260905224516 | 66 | 68 | 9.0 | 12.0 | 0.00 | 0.00 | 0.00 | 76 | 1009.7 |
| 20260905224016 | 66 | 68 | 11.0 | 12.0 | 0.00 | 0.00 | 0.00 | 76 | 1009.8 |
| 20260905223516 | 66 | 68 | 11.0 | 13.0 | 0.00 | 0.00 | 0.00 | 76 | 1009.8 |
| 20260905223016 | 66 | 68 | 11.0 | 13.0 | 0.00 | 0.00 | 0.00 | 76 | 1009.7 |
| 20260905222536 | 66 | 68 | 10.0 | 13.0 | 0.00 | 0.00 | 0.00 | 76 | 1009.7 |
| 20260905222016 | 66 | 68 | 10.0 | 12.0 | 0.00 | 0.00 | 0.00 | 75 | 1009.6 |
| 20260905221536 | 66 | 68 | 10.0 | 13.0 | 0.00 | 0.00 | 0.00 | 75 | 1009.6 |
| 20260905221016 | 66 | 68 | 11.0 | 13.0 | 0.00 | 0.00 | 0.00 | 75 | 1009.5 |
| 20260905220516 | 66 | 68 | 10.0 | 13.0 | 0.00 | 0.00 | 0.00 | 75 | 1009.5 |
| 20260905220016 | 66 | 68 | 11.0 | 13.0 | 0.00 | 0.00 | 0.00 | 75 | 1009.4 |
| 20260905215516 | 66 | 68 | 10.0 | 13.0 | 0.00 | 0.00 | 0.00 | 76 | 1009.4 |
| 20260905215016 | 66 | 68 | 9.0 | 11.0 | 0.00 | 0.00 | 0.00 | 76 | 1009.3 |
| 20260905214536 | 66 | 68 | 8.0 | 10.0 | 0.00 | 0.00 | 0.00 | 75 | 1009.2 |
| 20260905214016 | 66 | 68 | 7.0 | 9.0 | 0.00 | 0.00 | 0.00 | 75 | 1009.1 |
| 20260905213516 | 66 | 68 | 6.0 | 9.0 | 0.00 | 0.00 | 0.00 | 76 | 1009.0 |
| 20260905213016 | 66 | 68 | 5.0 | 8.0 | 0.00 | 0.00 | 0.00 | 76 | 1009.1 |
| 20260905212516 | 66 | 68 | 7.0 | 9.0 | 0.00 | 0.00 | 0.00 | 76 | 1009.2 |
| 20260905212017 | 66 | 90 | 7.0 | 8.0 | 0.00 | 0.00 | 0.00 | 76 | 1009.1 |
| 20260905211516 | 66 | 90 | 7.0 | 10.0 | 0.00 | 0.00 | 0.00 | 76 | 1009.1 |
| 20260905211016 | 66 | 90 | 9.0 | 11.0 | 0.00 | 0.00 | 0.00 | 76 | 1009.1 |
| 20260905210536 | 66 | 90 | 8.0 | 10.0 | 0.00 | 0.00 | 0.00 | 77 | 1009.1 |
| 20260905210036 | 66 | 90 | 8.0 | 11.0 | 0.00 | 0.00 | 0.00 | 77 | 1009.0 |
| 20260905205516 | 66 | 90 | 7.0 | 9.0 | 0.00 | 0.00 | 0.00 | 77 | 1009.0 |
| 20260905205016 | 65 | 90 | 8.0 | 10.0 | 0.00 | 0.00 | 0.00 | 77 | 1009.1 |
| 20260905204516 | 66 | 90 | 8.0 | 12.0 | 0.00 | 0.00 | 0.00 | 77 | 1009.1 |
| 20260905204016 | 65 | 90 | 9.0 | 15.0 | 0.00 | 0.00 | 0.00 | 78 | 1009.1 |
| 20260905203516 | 65 | 90 | 9.0 | 12.0 | 0.00 | 0.00 | 0.00 | 78 | 1009.1 |
| 20260905203015 | 65 | 90 | 10.0 | 13.0 | 0.00 | 0.00 | 0.00 | 78 | 1009.1 |
| 20260905202516 | 65 | 90 | 8.0 | 11.0 | 0.00 | 0.00 | 0.00 | 79 | 1009.1 |
| 20260905202036 | 65 | 90 | 10.0 | 13.0 | 0.00 | 0.00 | 0.00 | 78 | 1009.0 |
| 20260905201515 | 65 | 90 | 9.0 | 13.0 | 0.00 | 0.00 | 0.00 | 79 | 1008.9 |
| 20260905201016 | 65 | 90 | 10.0 | 12.0 | 0.00 | 0.00 | 0.00 | 79 | 1008.9 |
| 20260905200516 | 64 | 90 | 10.0 | 13.0 | 0.00 | 0.00 | 0.00 | 80 | 1008.9 |
| 20260905200016 | 64 | 90 | 10.0 | 13.0 | 0.00 | 0.00 | 0.00 | 81 | 1008.9 |
| 20260905195515 | 64 | 68 | 11.0 | 15.0 | 0.00 | 0.00 | 0.00 | 81 | 1009.0 |
| 20260905195015 | 64 | 45 | 4.0 | 8.0 | 0.00 | 0.00 | 0.00 | 81 | 1009.0 |
| 20260905194556 | 64 | 45 | 8.0 | 12.0 | 0.00 | 0.00 | 0.00 | 81 | 1009.0 |
| 20260905194015 | 64 | 45 | 10.0 | 14.0 | 0.00 | 0.00 | 0.00 | 81 | 1009.1 |
| 20260905193515 | 64 | 68 | 14.0 | 20.0 | 0.00 | 0.00 | 0.00 | 79 | 1009.1 |
| 20260905193016 | 65 | 68 | 18.0 | 21.0 | 0.00 | 0.00 | 0.00 | 78 | 1009.1 |
| 20260905192516 | 65 | 68 | 17.0 | 22.0 | 0.00 | 0.00 | 0.00 | 78 | 1009.1 |
| 20260905192016 | 66 | 68 | 17.0 | 20.0 | 0.00 | 0.00 | 0.00 | 78 | 1009.0 |
| 20260905191536 | 66 | 68 | 15.0 | 19.0 | 0.00 | 0.00 | 0.00 | 78 | 1009.0 |
| 20260905191056 | 66 | 68 | 14.0 | 18.0 | 0.00 | 0.00 | 0.00 | 79 | 1008.9 |
| 20260905190516 | 66 | 68 | 13.0 | 17.0 | 0.00 | 0.00 | 0.00 | 79 | 1009.0 |
| 20260905190016 | 66 | 68 | 14.0 | 18.0 | 0.00 | 0.00 | 0.00 | 79 | 1009.0 |
| 20260905185516 | 66 | 68 | 13.0 | 17.0 | 0.00 | 0.00 | 0.00 | 79 | 1009.0 |
| 20260905185016 | 66 | 68 | 14.0 | 17.0 | 0.00 | 0.00 | 0.00 | 79 | 1008.9 |
| 20260905184536 | 66 | 90 | 14.0 | 17.0 | 0.00 | 0.00 | 0.00 | 79 | 1008.9 |
| 20260905184036 | 66 | 90 | 15.0 | 17.0 | 0.00 | 0.00 | 0.00 | 79 | 1009.0 |
| 20260905183516 | 66 | 90 | 14.0 | 17.0 | 0.00 | 0.00 | 0.00 | 80 | 1009.0 |
| 20260905183016 | 66 | 90 | 14.0 | 18.0 | 0.00 | 0.00 | 0.00 | 80 | 1008.9 |
| 20260905182516 | 66 | 68 | 15.0 | 18.0 | 0.00 | 0.00 | 0.00 | 80 | 1008.9 |
| 20260905182016 | 66 | 68 | 15.0 | 20.0 | 0.00 | 0.00 | 0.00 | 80 | 1008.9 |
| 20260905181516 | 66 | 90 | 14.0 | 17.0 | 0.00 | 0.00 | 0.00 | 80 | 1008.9 |
| 20260905181016 | 66 | 68 | 14.0 | 17.0 | 0.00 | 0.00 | 0.00 | 81 | 1008.8 |
| 20260905180515 | 66 | 68 | 13.0 | 17.0 | 0.00 | 0.00 | 0.00 | 81 | 1008.7 |
| 20260905180016 | 66 | 68 | 14.0 | 19.0 | 0.00 | 0.00 | 0.00 | 82 | 1008.8 |
| 20260905175516 | 66 | 68 | 13.0 | 18.0 | 0.00 | 0.00 | 0.00 | 82 | 1008.7 |
| 20260905175015 | 66 | 68 | 14.0 | 17.0 | 0.00 | 0.00 | 0.00 | 82 | 1008.6 |
| 20260905174515 | 65 | 68 | 15.0 | 18.0 | 0.00 | 0.00 | 0.00 | 82 | 1008.5 |
| 20260905174015 | 65 | 68 | 15.0 | 18.0 | 0.00 | 0.00 | 0.00 | 82 | 1008.6 |
| 20260905173535 | 65 | 68 | 16.0 | 20.0 | 0.00 | 0.00 | 0.00 | 82 | 1008.6 |
| 20260905173016 | 65 | 68 | 16.0 | 20.0 | 0.00 | 0.00 | 0.00 | 82 | 1008.6 |
| 20260905172516 | 65 | 68 | 17.0 | 20.0 | 0.00 | 0.00 | 0.00 | 82 | 1008.6 |
| 20260905172016 | 65 | 68 | 16.0 | 19.0 | 0.00 | 0.00 | 0.00 | 83 | 1008.5 |
| 20260905171515 | 65 | 68 | 16.0 | 21.0 | 0.00 | 0.00 | 0.00 | 82 | 1008.4 |
| 20260905171015 | 65 | 68 | 18.0 | 22.0 | 0.00 | 0.00 | 0.00 | 82 | 1008.4 |
| 20260905170515 | 65 | 68 | 18.0 | 23.0 | 0.00 | 0.00 | 0.00 | 82 | 1008.4 |
| 20260905170015 | 65 | 68 | 19.0 | 23.0 | 0.00 | 0.00 | 0.00 | 82 | 1008.4 |
| 20260905165516 | 65 | 68 | 19.0 | 24.0 | 0.00 | 0.00 | 0.00 | 83 | 1008.4 |
| 20260905165015 | 65 | 68 | 19.0 | 26.0 | 0.00 | 0.00 | 0.00 | 83 | 1008.3 |
| 20260905164516 | 65 | 68 | 20.0 | 25.0 | 0.00 | 0.00 | 0.00 | 83 | 1008.2 |
| 20260905164036 | 65 | 68 | 22.0 | 27.0 | 0.00 | 0.00 | 0.00 | 82 | 1008.2 |
| 20260905163535 | 65 | 68 | 26.0 | 32.0 | 0.00 | 0.00 | 0.00 | 82 | 1008.3 |
| 20260905163015 | 65 | 68 | 26.0 | 32.0 | 0.00 | 0.00 | 0.00 | 82 | 1008.2 |
| 20260905162515 | 66 | 68 | 25.0 | 31.0 | 0.00 | 0.00 | 0.00 | 82 | 1008.2 |
| 20260905162015 | 66 | 68 | 27.0 | 32.0 | 0.00 | 0.00 | 0.00 | 81 | 1008.2 |
| 20260905161556 | 66 | 68 | 26.0 | 32.0 | 0.00 | 0.00 | 0.00 | 81 | 1008.1 |
| 20260905161016 | 66 | 68 | 23.0 | 32.0 | 0.00 | 0.00 | 0.00 | 81 | 1008.1 |
| 20260905160516 | 67 | 68 | 24.0 | 34.0 | 0.00 | 0.00 | 0.00 | 80 | 1008.1 |
| 20260905160015 | 68 | 45 | 25.0 | 34.0 | 0.00 | 0.00 | 0.00 | 79 | 1008.1 |
| 20260905155515 | 68 | 45 | 21.0 | 28.0 | 0.00 | 0.00 | 0.00 | 77 | 1008.1 |
| 20260905155016 | 68 | 45 | 22.0 | 28.0 | 0.00 | 0.00 | 0.00 | 77 | 1008.0 |
| 20260905154515 | 69 | 45 | 21.0 | 29.0 | 0.00 | 0.00 | 0.00 | 77 | 1008.0 |
| 20260905154015 | 69 | 45 | 21.0 | 28.0 | 0.00 | 0.00 | 0.00 | 76 | 1008.1 |
| 20260905153536 | 69 | 45 | 20.0 | 29.0 | 0.00 | 0.00 | 0.00 | 77 | 1008.0 |
| 20260905153019 | 68 | 45 | 19.0 | 28.0 | 0.00 | 0.00 | 0.00 | 78 | 1008.0 |
| 20260905152517 | 68 | 45 | 21.0 | 28.0 | 0.00 | 0.00 | 0.00 | 78 | 1008.0 |
| 20260905152017 | 68 | 45 | 21.0 | 30.0 | 0.00 | 0.00 | 0.00 | 78 | 1007.9 |
| 20260905151539 | 67 | 45 | 20.0 | 27.0 | 0.00 | 0.00 | 0.00 | 78 | 1007.9 |
| 20260905151017 | 67 | 45 | 21.0 | 29.0 | 0.00 | 0.00 | 0.00 | 78 | 1008.0 |
| 20260905150517 | 67 | 45 | 20.0 | 28.0 | 0.00 | 0.00 | 0.00 | 78 | 1008.0 |
| 20260905150018 | 67 | 45 | 19.0 | 26.0 | 0.00 | 0.00 | 0.00 | 78 | 1008.1 |
| 20260905145517 | 67 | 45 | 19.0 | 26.0 | 0.00 | 0.00 | 0.00 | 78 | 1008.1 |
| 20260905145018 | 68 | 45 | 19.0 | 27.0 | 0.00 | 0.00 | 0.00 | 78 | 1008.0 |
| 20260905144517 | 68 | 45 | 18.0 | 25.0 | 0.00 | 0.00 | 0.00 | 78 | 1008.0 |
| 20260905144038 | 68 | 45 | 18.0 | 26.0 | 0.00 | 0.00 | 0.00 | 78 | 1008.0 |
| 20260905143537 | 68 | 45 | 17.0 | 24.0 | 0.00 | 0.00 | 0.00 | 77 | 1008.1 |
| 20260905143038 | 68 | 45 | 17.0 | 23.0 | 0.00 | 0.00 | 0.00 | 77 | 1008.1 |
| 20260905142518 | 68 | 45 | 18.0 | 24.0 | 0.00 | 0.00 | 0.00 | 77 | 1008.0 |
| 20260905142058 | 68 | 45 | 17.0 | 25.0 | 0.00 | 0.00 | 0.00 | 77 | 1008.0 |
| 20260905141517 | 68 | 45 | 16.0 | 24.0 | 0.00 | 0.00 | 0.00 | 78 | 1007.9 |
| 20260905141017 | 68 | 45 | 18.0 | 24.0 | 0.00 | 0.00 | 0.00 | 78 | 1007.9 |
| 20260905140538 | 68 | 45 | 18.0 | 25.0 | 0.00 | 0.00 | 0.00 | 78 | 1007.8 |
| 20260905140038 | 68 | 45 | 20.0 | 25.0 | 0.00 | 0.00 | 0.00 | 78 | 1007.8 |
| 20260905135518 | 68 | 45 | 18.0 | 25.0 | 0.00 | 0.00 | 0.00 | 78 | 1007.7 |
| 20260905135017 | 68 | 45 | 17.0 | 25.0 | 0.00 | 0.00 | 0.00 | 79 | 1007.7 |
| 20260905134517 | 68 | 45 | 19.0 | 25.0 | 0.00 | 0.00 | 0.00 | 78 | 1007.7 |
| 20260905134017 | 68 | 45 | 17.0 | 22.0 | 0.00 | 0.00 | 0.00 | 78 | 1007.6 |
| 20260905133517 | 68 | 45 | 16.0 | 22.0 | 0.00 | 0.00 | 0.00 | 79 | 1007.5 |
| 20260905133018 | 68 | 45 | 18.0 | 23.0 | 0.00 | 0.00 | 0.00 | 78 | 1007.4 |
| 20260905132517 | 68 | 45 | 16.0 | 21.0 | 0.00 | 0.00 | 0.00 | 78 | 1007.4 |
| 20260905132017 | 69 | 45 | 16.0 | 23.0 | 0.00 | 0.00 | 0.00 | 78 | 1007.3 |
| 20260905131517 | 69 | 45 | 15.0 | 20.0 | 0.00 | 0.00 | 0.00 | 78 | 1007.3 |
| 20260905131037 | 69 | 45 | 15.0 | 22.0 | 0.00 | 0.00 | 0.00 | 79 | 1007.2 |
| 20260905130518 | 68 | 45 | 15.0 | 21.0 | 0.00 | 0.00 | 0.00 | 78 | 1007.1 |
| 20260905130017 | 68 | 45 | 14.0 | 19.0 | 0.00 | 0.00 | 0.00 | 79 | 1007.1 |
| 20260905125517 | 68 | 45 | 14.0 | 18.0 | 0.00 | 0.00 | 0.00 | 78 | 1007.1 |
| 20260905125018 | 68 | 45 | 16.0 | 21.0 | 0.00 | 0.00 | 0.00 | 78 | 1007.1 |
| 20260905124517 | 68 | 45 | 16.0 | 21.0 | 0.00 | 0.00 | 0.00 | 79 | 1007.1 |
| 20260905124017 | 68 | 45 | 15.0 | 22.0 | 0.00 | 0.00 | 0.00 | 80 | 1007.1 |
| 20260905123517 | 67 | 45 | 16.0 | 22.0 | 0.00 | 0.00 | 0.00 | 80 | 1007.0 |
| 20260905123017 | 67 | 45 | 17.0 | 23.0 | 0.00 | 0.00 | 0.00 | 79 | 1007.0 |
| 20260905122537 | 67 | 45 | 18.0 | 23.0 | 0.00 | 0.00 | 0.00 | 79 | 1007.0 |
| 20260905122017 | 67 | 45 | 18.0 | 23.0 | 0.00 | 0.00 | 0.00 | 79 | 1006.9 |
| 20260905121517 | 67 | 45 | 17.0 | 22.0 | 0.00 | 0.00 | 0.00 | 79 | 1007.0 |
| 20260905121038 | 68 | 45 | 17.0 | 22.0 | 0.00 | 0.00 | 0.00 | 79 | 1007.0 |
| 20260905120517 | 68 | 45 | 17.0 | 24.0 | 0.00 | 0.00 | 0.00 | 79 | 1006.9 |
| 20260905120017 | 68 | 45 | 17.0 | 23.0 | 0.00 | 0.00 | 0.00 | 79 | 1006.9 |
| 20260905115517 | 68 | 45 | 16.0 | 23.0 | 0.00 | 0.00 | 0.00 | 80 | 1006.8 |
| 20260905115017 | 67 | 45 | 18.0 | 24.0 | 0.00 | 0.00 | 0.00 | 79 | 1006.8 |
| 20260905114517 | 67 | 45 | 19.0 | 24.0 | 0.00 | 0.00 | 0.00 | 79 | 1006.7 |
| 20260905114017 | 67 | 45 | 17.0 | 25.0 | 0.00 | 0.00 | 0.00 | 80 | 1006.7 |
| 20260905113517 | 67 | 45 | 19.0 | 26.0 | 0.00 | 0.00 | 0.00 | 79 | 1006.6 |
| 20260905113017 | 67 | 45 | 17.0 | 24.0 | 0.00 | 0.00 | 0.00 | 81 | 1006.6 |
| 20260905112517 | 67 | 45 | 15.0 | 22.0 | 0.00 | 0.00 | 0.00 | 83 | 1006.6 |
| 20260905112017 | 67 | 23 | 14.0 | 18.0 | 0.00 | 0.00 | 0.00 | 83 | 1006.5 |
| 20260905111517 | 67 | 23 | 13.0 | 18.0 | 0.00 | 0.00 | 0.00 | 83 | 1006.5 |
| 20260905111017 | 67 | 23 | 12.0 | 14.0 | 0.00 | 0.00 | 0.00 | 83 | 1006.5 |
| 20260905110517 | 67 | 23 | 13.0 | 16.0 | 0.00 | 0.00 | 0.00 | 83 | 1006.4 |
| 20260905110017 | 66 | 23 | 13.0 | 15.0 | 0.00 | 0.00 | 0.00 | 83 | 1006.5 |
| 20260905105517 | 66 | 23 | 12.0 | 17.0 | 0.00 | 0.00 | 0.00 | 83 | 1006.5 |
| 20260905105017 | 66 | 23 | 13.0 | 16.0 | 0.00 | 0.00 | 0.00 | 83 | 1006.4 |
| 20260905104517 | 66 | 23 | 13.0 | 17.0 | 0.00 | 0.00 | 0.00 | 83 | 1006.3 |
| 20260905104017 | 66 | 0 | 13.0 | 17.0 | 0.00 | 0.00 | 0.00 | 83 | 1006.3 |
| 20260905103517 | 66 | 338 | 13.0 | 17.0 | 0.00 | 0.00 | 0.00 | 83 | 1006.2 |
| 20260905103017 | 66 | 338 | 12.0 | 16.0 | 0.00 | 0.00 | 0.00 | 84 | 1006.2 |
| 20260905102517 | 66 | 338 | 10.0 | 13.0 | 0.00 | 0.00 | 0.00 | 84 | 1006.1 |
| 20260905102037 | 66 | 338 | 10.0 | 13.0 | 0.00 | 0.00 | 0.00 | 83 | 1006.1 |
| 20260905101517 | 66 | 338 | 11.0 | 14.0 | 0.00 | 0.00 | 0.00 | 83 | 1006.0 |
| 20260905101017 | 66 | 338 | 11.0 | 13.0 | 0.00 | 0.00 | 0.00 | 83 | 1006.0 |
| 20260905100537 | 66 | 338 | 11.0 | 13.0 | 0.00 | 0.00 | 0.00 | 83 | 1006.0 |
| 20260905100017 | 66 | 338 | 11.0 | 14.0 | 0.00 | 0.00 | 0.00 | 83 | 1005.9 |
| 20260905095517 | 66 | 338 | 11.0 | 14.0 | 0.00 | 0.00 | 0.00 | 83 | 1005.9 |
| 20260905095017 | 66 | 338 | 11.0 | 14.0 | 0.00 | 0.00 | 0.00 | 83 | 1005.8 |
| 20260905094516 | 66 | 338 | 11.0 | 13.0 | 0.00 | 0.00 | 0.00 | 83 | 1005.8 |
| 20260905094057 | 66 | 338 | 10.0 | 13.0 | 0.00 | 0.00 | 0.00 | 83 | 1005.8 |
| 20260905093517 | 66 | 338 | 11.0 | 14.0 | 0.00 | 0.00 | 0.00 | 83 | 1005.8 |
| 20260905093017 | 66 | 338 | 10.0 | 13.0 | 0.00 | 0.00 | 0.00 | 83 | 1005.8 |
| 20260905092517 | 66 | 338 | 10.0 | 13.0 | 0.00 | 0.00 | 0.00 | 83 | 1005.8 |
| 20260905092017 | 66 | 338 | 10.0 | 12.0 | 0.00 | 0.00 | 0.00 | 82 | 1005.8 |
| 20260905091517 | 66 | 338 | 10.0 | 13.0 | 0.00 | 0.00 | 0.00 | 82 | 1005.7 |
| 20260905091017 | 66 | 338 | 10.0 | 13.0 | 0.00 | 0.00 | 0.00 | 82 | 1005.7 |
| 20260905090516 | 66 | 338 | 10.0 | 12.0 | 0.00 | 0.00 | 0.00 | 82 | 1005.7 |
| 20260905090017 | 66 | 338 | 11.0 | 14.0 | 0.00 | 0.00 | 0.00 | 81 | 1005.6 |
| 20260905085517 | 66 | 338 | 11.0 | 14.0 | 0.00 | 0.00 | 0.00 | 81 | 1005.5 |
| 20260905085016 | 66 | 338 | 12.0 | 15.0 | 0.00 | 0.00 | 0.00 | 81 | 1005.5 |
| 20260905084517 | 66 | 338 | 12.0 | 14.0 | 0.00 | 0.00 | 0.00 | 81 | 1005.6 |
| 20260905084017 | 66 | 338 | 11.0 | 15.0 | 0.00 | 0.00 | 0.00 | 80 | 1005.5 |
| 20260905083536 | 66 | 315 | 11.0 | 14.0 | 0.00 | 0.00 | 0.00 | 80 | 1005.6 |
| 20260905083038 | 66 | 338 | 10.0 | 13.0 | 0.00 | 0.00 | 0.00 | 80 | 1005.6 |
| 20260905082516 | 66 | 338 | 11.0 | 15.0 | 0.00 | 0.00 | 0.00 | 80 | 1005.6 |
| 20260905082017 | 66 | 338 | 10.0 | 14.0 | 0.00 | 0.00 | 0.00 | 80 | 1005.5 |
| 20260905081517 | 66 | 338 | 10.0 | 13.0 | 0.00 | 0.00 | 0.00 | 79 | 1005.5 |
| 20260905081017 | 66 | 338 | 11.0 | 14.0 | 0.00 | 0.00 | 0.00 | 79 | 1005.6 |
| 20260905080517 | 66 | 315 | 12.0 | 15.0 | 0.00 | 0.00 | 0.00 | 79 | 1005.5 |
| 20260905080016 | 67 | 315 | 10.0 | 14.0 | 0.00 | 0.00 | 0.00 | 79 | 1005.5 |
| 20260905075537 | 67 | 315 | 11.0 | 16.0 | 0.00 | 0.00 | 0.00 | 79 | 1005.5 |
| 20260905075037 | 67 | 315 | 10.0 | 15.0 | 0.00 | 0.00 | 0.00 | 78 | 1005.5 |
| 20260905074517 | 67 | 315 | 11.0 | 15.0 | 0.00 | 0.00 | 0.00 | 78 | 1005.5 |
| 20260905074015 | 67 | 315 | 11.0 | 16.0 | 0.00 | 0.00 | 0.00 | 78 | 1005.5 |
| 20260905073516 | 67 | 315 | 12.0 | 15.0 | 0.00 | 0.00 | 0.00 | 78 | 1005.5 |
| 20260905073015 | 67 | 315 | 10.0 | 15.0 | 0.00 | 0.00 | 0.00 | 79 | 1005.5 |
| 20260905072515 | 66 | 315 | 10.0 | 13.0 | 0.00 | 0.00 | 0.00 | 78 | 1005.5 |
| 20260905072015 | 67 | 315 | 9.0 | 14.0 | 0.00 | 0.00 | 0.00 | 78 | 1005.5 |
| 20260905071515 | 67 | 315 | 9.0 | 14.0 | 0.00 | 0.00 | 0.00 | 78 | 1005.6 |
| 20260905071038 | 67 | 315 | 9.0 | 13.0 | 0.00 | 0.00 | 0.00 | 78 | 1005.6 |
| 20260905070515 | 67 | 315 | 9.0 | 13.0 | 0.00 | 0.00 | 0.00 | 78 | 1005.6 |
| 20260905070015 | 67 | 315 | 9.0 | 12.0 | 0.00 | 0.00 | 0.00 | 78 | 1005.7 |
| 20260905065515 | 67 | 315 | 9.0 | 13.0 | 0.00 | 0.00 | 0.00 | 78 | 1005.8 |
| 20260905065016 | 67 | 315 | 10.0 | 15.0 | 0.00 | 0.00 | 0.00 | 78 | 1005.8 |
| 20260905064515 | 67 | 315 | 11.0 | 15.0 | 0.00 | 0.00 | 0.00 | 77 | 1006.0 |
| 20260905064016 | 67 | 315 | 11.0 | 17.0 | 0.00 | 0.00 | 0.00 | 77 | 1006.0 |
| 20260905063515 | 67 | 338 | 12.0 | 16.0 | 0.00 | 0.00 | 0.00 | 77 | 1005.8 |
| 20260905063015 | 67 | 315 | 12.0 | 15.0 | 0.00 | 0.00 | 0.00 | 77 | 1005.8 |
| 20260905062515 | 68 | 338 | 12.0 | 15.0 | 0.00 | 0.00 | 0.00 | 77 | 1005.9 |
| 20260905062015 | 68 | 315 | 12.0 | 16.0 | 0.00 | 0.00 | 0.00 | 77 | 1005.8 |
| 20260905061515 | 68 | 315 | 12.0 | 17.0 | 0.00 | 0.00 | 0.00 | 77 | 1005.9 |
| 20260905061015 | 68 | 315 | 11.0 | 15.0 | 0.00 | 0.00 | 0.00 | 77 | 1005.9 |
| 20260905060536 | 68 | 315 | 10.0 | 15.0 | 0.00 | 0.00 | 0.00 | 77 | 1005.9 |
| 20260905060015 | 68 | 315 | 10.0 | 14.0 | 0.00 | 0.00 | 0.00 | 77 | 1005.9 |
| 20260905055536 | 68 | 315 | 11.0 | 15.0 | 0.00 | 0.00 | 0.00 | 77 | 1005.9 |
| 20260905055016 | 68 | 315 | 10.0 | 14.0 | 0.00 | 0.00 | 0.00 | 76 | 1005.8 |
| 20260905054515 | 68 | 315 | 10.0 | 14.0 | 0.00 | 0.00 | 0.00 | 76 | 1006.0 |
| 20260905054016 | 68 | 315 | 11.0 | 14.0 | 0.00 | 0.00 | 0.00 | 76 | 1006.0 |
| 20260905053516 | 68 | 315 | 10.0 | 14.0 | 0.00 | 0.00 | 0.00 | 76 | 1006.0 |
| 20260905053016 | 68 | 315 | 9.0 | 14.0 | 0.00 | 0.00 | 0.00 | 76 | 1006.0 |
| 20260905052517 | 68 | 315 | 11.0 | 17.0 | 0.00 | 0.00 | 0.00 | 76 | 1005.9 |
| 20260905052017 | 68 | 315 | 11.0 | 15.0 | 0.00 | 0.00 | 0.00 | 76 | 1005.8 |
| 20260905051517 | 68 | 315 | 11.0 | 15.0 | 0.00 | 0.00 | 0.00 | 76 | 1005.8 |
| 20260905051018 | 68 | 315 | 11.0 | 15.0 | 0.00 | 0.00 | 0.00 | 76 | 1005.9 |
| 20260905050517 | 68 | 315 | 10.0 | 13.0 | 0.00 | 0.00 | 0.00 | 76 | 1005.8 |
| 20260905050017 | 68 | 315 | 9.0 | 13.0 | 0.00 | 0.00 | 0.00 | 76 | 1005.9 |
| 20260905045517 | 68 | 315 | 10.0 | 13.0 | 0.00 | 0.00 | 0.00 | 76 | 1005.9 |
| 20260905045018 | 69 | 315 | 11.0 | 15.0 | 0.00 | 0.00 | 0.00 | 76 | 1005.8 |
| 20260905044517 | 69 | 338 | 11.0 | 15.0 | 0.00 | 0.00 | 0.00 | 76 | 1005.8 |
| 20260905044017 | 69 | 338 | 11.0 | 14.0 | 0.00 | 0.00 | 0.00 | 76 | 1005.9 |
| 20260905043517 | 69 | 315 | 11.0 | 13.0 | 0.00 | 0.00 | 0.00 | 76 | 1005.9 |
| 20260905043017 | 69 | 338 | 10.0 | 13.0 | 0.00 | 0.00 | 0.00 | 76 | 1006.0 |
| 20260905042517 | 69 | 338 | 10.0 | 13.0 | 0.00 | 0.00 | 0.00 | 76 | 1005.9 |
| 20260905042018 | 69 | 338 | 10.0 | 13.0 | 0.00 | 0.00 | 0.00 | 76 | 1006.0 |
| 20260905041518 | 69 | 338 | 10.0 | 13.0 | 0.00 | 0.00 | 0.00 | 76 | 1005.9 |
| 20260905041017 | 69 | 338 | 10.0 | 14.0 | 0.00 | 0.00 | 0.00 | 75 | 1005.9 |
| 20260905040517 | 69 | 338 | 12.0 | 14.0 | 0.00 | 0.00 | 0.00 | 74 | 1005.9 |
| 20260905040017 | 70 | 338 | 12.0 | 16.0 | 0.00 | 0.00 | 0.00 | 74 | 1005.9 |
| 20260905035516 | 70 | 338 | 13.0 | 16.0 | 0.00 | 0.00 | 0.00 | 74 | 1005.8 |
| 20260905035055 | 70 | 315 | 13.0 | 16.0 | 0.00 | 0.00 | 0.00 | 74 | 1006.0 |
| 20260905034537 | 70 | 315 | 12.0 | 15.0 | 0.00 | 0.00 | 0.00 | 74 | 1006.0 |
| 20260905034016 | 70 | 315 | 11.0 | 15.0 | 0.00 | 0.00 | 0.00 | 75 | 1006.0 |
| 20260905033516 | 70 | 315 | 9.0 | 13.0 | 0.00 | 0.00 | 0.00 | 75 | 1006.0 |
| 20260905033016 | 70 | 315 | 9.0 | 14.0 | 0.00 | 0.00 | 0.00 | 75 | 1006.1 |
| 20260905032516 | 70 | 315 | 11.0 | 14.0 | 0.00 | 0.00 | 0.00 | 75 | 1006.1 |
| 20260905032016 | 70 | 315 | 11.0 | 16.0 | 0.00 | 0.00 | 0.00 | 75 | 1006.0 |
| 20260905031516 | 70 | 315 | 11.0 | 14.0 | 0.00 | 0.00 | 0.00 | 76 | 1006.0 |
| 20260905031016 | 70 | 315 | 10.0 | 13.0 | 0.00 | 0.00 | 0.00 | 76 | 1006.1 |
| 20260905030515 | 69 | 315 | 11.0 | 14.0 | 0.00 | 0.00 | 0.00 | 77 | 1006.0 |
| 20260905030016 | 69 | 315 | 10.0 | 13.0 | 0.00 | 0.00 | 0.00 | 78 | 1006.0 |
| 20260905025515 | 69 | 315 | 8.0 | 11.0 | 0.00 | 0.00 | 0.00 | 79 | 1006.0 |